[[{"header":{"parameterUnit":"m.s-1","parameterCategory":1,"la1":30.2991,"la2":30.254,"lo1":-89.0895,"lo2":-89.0444,"dy":0.0017,"dx":0.0017,"nx":28,"ny":28,"refTime":"2023-08-19T09:00:00:Z","depth":0,"parameterNumber":2,"parameterNumberName":"U-component_of_WINDS"},"data":[0,0,0,0,0,0,0,0,0,0,0,0,0,0,0,0,0,0,0,0,0,0,0,0,0,0,0,0,0,0,0,0,0,0,0,0,0,0,0,0,0,0,0,0,0,0,0,0,0,0,0,0,0,0,0,0,0,0,-2.0174,-2.0173,0,-2.0131,-2.013,-2.013,-2.0112,-2.0112,-2.0113,-2.0113,-2.0067,-2.0066,-2.0064,0,0,0,0,0,0,0,0,0,0,0,0,0,-2.0241,-2.024,-2.0174,-2.0173,-2.0173,-2.0131,-2.013,-2.013,-2.0112,-2.0112,-2.0113,-2.0113,-2.0067,-2.0066,-2.0064,0,0,0,0,0,0,0,0,0,0,0,0,0,-2.0206,-2.0239,-2.0174,-2.0159,-2.0157,-2.0131,-2.013,-2.0129,-2.0112,-2.0112,-2.0113,-2.0113,-2.0068,-2.0066,-2.0064,-2.0048,0,0,-2.0058,-2.0057,0,0,0,0,0,0,0,0,-2.0208,-2.0204,-2.0162,-2.016,-2.0158,-2.0127,-2.0137,-2.0102,-2.0112,-2.0129,-2.0113,-2.0113,-2.0087,-2.0083,-2.0075,-2.0046,-2.0044,-2.0058,-2.0056,-2.0056,-2.0055,0,0,0,0,0,0,0,-2.0211,-2.0205,-2.0157,-2.0161,-2.0159,-2.0155,-2.015,-2.013,-2.0108,-2.0128,-2.0126,-2.0122,-2.0086,-2.0077,-2.0073,-2.0044,-2.0058,-2.0056,-2.0055,-2.0054,-2.0003,-2.0003,0,0,0,0,0,0,-2.0216,-2.0208,-2.0158,-2.0155,-2.0184,-2.0153,-2.0148,-2.0137,-2.0108,-2.0103,-2.0122,-2.0121,-2.008,-2.0076,-2.0072,-2.0053,-2.0056,-2.0054,-2.0053,-2.0004,-2.0003,-2.0003,0,0,0,0,0,0,-2.0217,-2.0211,-2.016,-2.0181,-2.0174,-2.0152,-2.014,-2.0136,-2.0127,-2.0103,-2.0099,-2.0117,-2.008,-2.0075,-2.0055,-2.0051,-2.0053,-2.0051,-2.0004,-2.0004,-2.0003,-2.0016,0,0,0,0,0,0,-2.0219,-2.0212,-2.0206,-2.0181,-2.0173,-2.0144,-2.0139,-2.0135,-2.0124,-2.0123,-2.0097,-2.0093,-2.008,-2.0058,-2.0053,-2.0049,-2.005,-2.0004,-2.0004,-2.0003,-2.0015,-2.0016,-2.0016,0,0,0,0,0,-2.0221,-2.021,-2.0205,-2.0199,-2.0165,-2.0144,-2.0139,-2.0124,-2.0123,-2.0117,-2.0102,-2.0094,-2.0053,-2.0056,-2.0051,-2.0045,-2.0004,-2.0004,-2.0003,-2.0015,-2.0016,-2.0016,0,0,0,0,0,0,-2.0232,-2.0206,-2.0201,-2.0181,-2.0165,-2.0141,-2.0132,-2.0125,-2.0108,-2.0107,-2.0089,-2.0084,-2.0066,-2.0054,-2.0058,-2.0031,-2.0028,-2.0027,-2.0039,-2.0039,-2.004,-2.0043,-2.0048,0,0,0,0,0,-2.0233,-2.0218,-2.0196,-2.018,-2.0173,-2.0154,-2.0144,-2.0134,-2.0117,-2.0109,-2.0093,-2.0076,-2.006,-2.0049,-2.0032,-2.0014,-2.0009,-2.0008,-2.0008,-2.0009,-2.0008,-1.9999,-1.9999,-2.0002,-2.0002,-2.0002,0,0,-2.0233,-2.0217,-2.0208,-2.0182,-2.0169,-2.0154,-2.0148,-2.0132,-2.0121,-2.0107,-2.0088,-2.0076,-2.0056,-2.0038,-2.0029,-2.0027,-2.0006,-2.0008,-2.0009,-2.0007,-1.9999,-1.9999,-1.9998,-2.0002,-2.0002,-2.0002,0,0,-2.0226,-2.0212,-2.0198,-2.0186,-2.0166,-2.0154,-2.0151,-2.0129,-2.012,-2.0102,-2.0091,-2.0078,-2.0049,-2.0036,-2.0026,-2.0017,-2.001,-2.0012,-2.0014,-2.0006,-2.0006,-2.0006,-2.0004,-2.0004,-2.0011,-2.0011,-2.0011,0,-2.0228,-2.0206,-2.0192,-2.0178,-2.0167,-2.0155,-2.0142,-2.013,-2.0106,-2.0099,-2.0097,-2.0063,-2.0048,-2.0028,-2.0027,-2.0018,-2.0015,-2.0015,-2.0007,-2.0007,-2.0006,-2.0005,-2.0004,-2.0012,-2.0012,-2.0012,-2.0012,0,-2.021,-2.0195,-2.0187,-2.0166,-2.0154,-2.014,-2.0125,-2.0115,-2.0108,-2.0096,-2.0078,-2.0061,-2.0042,-2.0036,-2.0028,-2.0016,-2.0015,-2.0011,-2.0008,-2.0007,-2.0005,-2.0004,-2.0013,-2.0013,-2.0012,-2.0012,0,0,-2.0206,-2.018,-2.0177,-2.0168,-2.0147,-2.0135,-2.0122,-2.0105,-2.0097,-2.0081,-2.007,-2.0048,-2.0045,-2.0033,-2.0023,-2.0016,-2.0013,-2.0013,-2.0012,-2.0015,-2.0001,-2.0004,-2.0004,-2.0008,-2.0008,-2.0008,-2.0003,0,-2.0197,-2.0173,-2.0161,-2.0142,-2.013,-2.012,-2.0108,-2.0094,-2.0084,-2.0072,-2.006,-2.0046,-2.0042,-2.0035,-2.0028,-2.0015,-2.001,-2.0015,-1.9998,-1.9998,-2.0004,-2.0002,-2.0005,-2.0001,-2.0002,-2.0002,-2.0001,0,-2.0181,-2.0168,-2.0148,-2.0131,-2.0125,-2.0115,-2.01,-2.0088,-2.0073,-2.0066,-2.0055,-2.0046,-2.0033,-2.0032,-2.0014,-2.0018,-2.001,-2.0003,-2.0003,-2.0,-1.9999,-2.0001,-1.9999,-1.9999,-2.0,-2.0,-2.0,0,-2.0182,-2.0159,-2.0144,-2.0137,-2.0117,-2.011,-2.0101,-2.0087,-2.0078,-2.0064,-2.0059,-2.0043,-2.0035,-2.0024,-2.0012,-2.0012,-1.9995,-1.9993,-1.999,-1.999,-1.9986,-1.9987,-1.9984,-1.9981,-1.9981,-1.9981,-1.9981,0,-2.0172,-2.0161,-2.0145,-2.0136,-2.0124,-2.0112,-2.01,-2.009,-2.0078,-2.0067,-2.0058,-2.0048,-2.0033,-2.0022,-2.0012,-2.0,-1.9995,-1.999,-1.9988,-1.9991,-1.9992,-1.9986,-1.9986,-1.9981,-1.9981,-1.9981,-1.9981,0,-2.017,-2.0158,-2.0143,-2.0126,-2.0122,-2.0113,-2.0099,-2.0091,-2.0081,-2.0069,-2.0065,-2.005,-2.0037,-2.0024,-2.0006,-2.0,-1.9988,-1.9984,-1.9993,-1.9992,-1.999,-1.9991,-1.9984,-1.9983,-1.998,-1.998,-1.998,0,-2.0164,-2.0155,-2.0139,-2.0132,-2.0124,-2.0112,-2.0104,-2.0093,-2.0085,-2.0069,-2.0063,-2.0049,-2.0038,-2.0017,-2.0005,-1.9992,-1.9988,-1.9987,-1.9986,-1.9991,-1.9989,-1.999,-1.999,-1.9987,-1.9987,-1.9987,-1.9987,0,-2.0156,-2.0152,-2.014,-2.0128,-2.0119,-2.0109,-2.0097,-2.0092,-2.0079,-2.0071,-2.0058,-2.0049,-2.0032,-2.0019,-2.0005,-1.9997,-1.999,-1.9988,-1.9987,-1.999,-1.9996,-1.9994,-1.9995,-1.9988,-1.9988,-1.9988,-1.9988,-1.9988,-2.0152,-2.0145,-2.0133,-2.0122,-2.0113,-2.0104,-2.0096,-2.0087,-2.0076,-2.0062,-2.0056,-2.0044,-2.0032,-2.0013,-2.0004,-1.9995,-1.9993,-1.9991,-1.999,-1.999,-1.9992,-1.9998,-1.9992,-1.9992,-1.9992,-1.9992,-1.9992,0,-2.0144,-2.0137,-2.0127,-2.0113,-2.0105,-2.0101,-2.009,-2.0083,-2.0072,-2.0062,-2.0052,-2.0038,-2.0027,-2.0015,-2.0003,-1.9998,-1.9995,-1.9995,-1.9995,-1.9994,-1.9993,-1.9996,-1.9998,-1.9998,-1.9998,-1.9998,-1.9998,-1.9998,-2.0139,-2.0128,-2.0123,-2.0107,-2.01,-2.0089,-2.0083,-2.0075,-2.0067,-2.0053,-2.0044,-2.0037,-2.0026,-2.0014,-2.0004,-2.0,-1.9997,-1.9998,-1.9994,-1.9994,-1.9993,-1.9993,-1.9995,-1.9997,-1.9997,-1.9996,-1.9996,-1.9996]},{"header":{"parameterUnit":"m.s-1","parameterCategory":1,"la1":30.2991,"la2":30.254,"lo1":-89.0895,"lo2":-89.0444,"dy":0.0017,"dx":0.0017,"nx":28,"ny":28,"refTime":"2023-08-19T09:00:00:Z","depth":0,"parameterNumber":3,"parameterNumberName":"V-component_of_WINDS"},"data":[0,0,0,0,0,0,0,0,0,0,0,0,0,0,0,0,0,0,0,0,0,0,0,0,0,0,0,0,0,0,0,0,0,0,0,0,0,0,0,0,0,0,0,0,0,0,0,0,0,0,0,0,0,0,0,0,0,0,2.3898,2.3898,0,2.3926,2.3926,2.3927,2.3956,2.3956,2.3957,2.3957,2.3983,2.3983,2.3984,0,0,0,0,0,0,0,0,0,0,0,0,0,2.3867,2.3867,2.3898,2.3898,2.3899,2.3926,2.3926,2.3927,2.3956,2.3956,2.3957,2.3957,2.3983,2.3983,2.3984,0,0,0,0,0,0,0,0,0,0,0,0,0,2.3886,2.3867,2.3898,2.3917,2.3919,2.3926,2.3926,2.3927,2.3956,2.3956,2.3957,2.3958,2.3983,2.3983,2.3984,2.3974,0,0,2.3985,2.3986,0,0,0,0,0,0,0,0,2.3885,2.3887,2.3914,2.3915,2.3918,2.3938,2.3925,2.3943,2.3956,2.3942,2.3957,2.3958,2.3968,2.3969,2.3973,2.3976,2.3977,2.3985,2.3986,2.3986,2.3986,0,0,0,0,0,0,0,2.3883,2.3886,2.3909,2.3914,2.3916,2.3922,2.3926,2.3928,2.3951,2.3943,2.3945,2.3948,2.3969,2.3973,2.3974,2.3977,2.3985,2.3986,2.3986,2.3986,2.3971,2.397,0,0,0,0,0,0,2.388,2.3885,2.3908,2.391,2.3902,2.3923,2.3926,2.3931,2.3951,2.3954,2.3947,2.3949,2.3972,2.3973,2.3975,2.3963,2.3986,2.3986,2.3987,2.3972,2.3971,2.397,0,0,0,0,0,0,2.3879,2.3881,2.3907,2.3898,2.3902,2.3922,2.3927,2.3931,2.3935,2.3954,2.3958,2.3948,2.3972,2.3974,2.3974,2.3965,2.3986,2.3987,2.3972,2.3971,2.397,2.3941,0,0,0,0,0,0,2.3878,2.3881,2.3878,2.3898,2.3902,2.3906,2.3927,2.3931,2.3936,2.3939,2.3955,2.3959,2.3973,2.3973,2.3974,2.3966,2.3987,2.3973,2.3972,2.3971,2.3943,2.3939,2.3936,0,0,0,0,0,2.3877,2.3869,2.3878,2.3881,2.3899,2.3906,2.3908,2.3925,2.3935,2.3932,2.3944,2.3958,2.3966,2.3973,2.3975,2.3966,2.3974,2.3972,2.3971,2.3944,2.394,2.3936,0,0,0,0,0,0,2.3848,2.3872,2.3882,2.3881,2.3891,2.3911,2.3908,2.392,2.3927,2.3929,2.395,2.3953,2.395,2.3958,2.3965,2.3957,2.3972,2.397,2.3951,2.3947,2.3944,2.3941,2.3988,0,0,0,0,0,2.3841,2.3845,2.3866,2.3863,2.3868,2.3887,2.389,2.3902,2.3913,2.3918,2.393,2.3939,2.3944,2.3946,2.3951,2.3945,2.3947,2.394,2.3936,2.3933,2.3931,2.3926,2.3922,2.3965,2.3965,2.3965,0,0,2.3828,2.3842,2.3843,2.3857,2.3867,2.3869,2.389,2.3892,2.3894,2.3918,2.3918,2.3927,2.3939,2.3935,2.3933,2.3941,2.392,2.3931,2.3929,2.3928,2.3924,2.392,2.3916,2.3964,2.3964,2.3964,0,0,2.3804,2.3816,2.3814,2.3822,2.3836,2.3849,2.3848,2.3866,2.3873,2.3874,2.3891,2.3893,2.3901,2.3908,2.3912,2.389,2.3902,2.3891,2.3872,2.3867,2.3863,2.386,2.385,2.3847,2.3889,2.3889,2.3889,0,2.3785,2.3791,2.3811,2.3811,2.3816,2.3839,2.3835,2.3843,2.3857,2.386,2.3869,2.3878,2.3887,2.3884,2.3878,2.3882,2.388,2.3888,2.3863,2.386,2.3857,2.3848,2.3844,2.3888,2.3888,2.3888,2.3888,0,2.3766,2.3769,2.3765,2.3779,2.3784,2.3783,2.3801,2.3803,2.3815,2.3826,2.3825,2.3837,2.3844,2.3845,2.3856,2.3843,2.3847,2.3859,2.3874,2.3851,2.3842,2.3839,2.3886,2.3886,2.3887,2.3887,0,0,2.3724,2.3749,2.3747,2.3752,2.3769,2.3771,2.377,2.3778,2.3778,2.3788,2.3786,2.3791,2.3802,2.3807,2.382,2.3816,2.3794,2.3828,2.3828,2.3819,2.3777,2.3766,2.3762,2.3803,2.3803,2.3802,2.3775,0,2.3702,2.3702,2.3719,2.3714,2.3716,2.3737,2.3736,2.3745,2.3755,2.3758,2.3769,2.3771,2.3787,2.379,2.3787,2.3797,2.3786,2.38,2.38,2.3799,2.3794,2.3757,2.3746,2.372,2.3772,2.3772,2.3771,0,2.3676,2.3684,2.3679,2.3694,2.3695,2.3694,2.3701,2.3704,2.3714,2.3722,2.3727,2.3741,2.3739,2.3755,2.3752,2.3761,2.3762,2.3767,2.3767,2.3766,2.3782,2.3753,2.3713,2.3708,2.3766,2.3767,2.3767,0,2.3644,2.3653,2.365,2.3655,2.3673,2.3671,2.3679,2.369,2.3692,2.3699,2.37,2.3706,2.3709,2.3712,2.3727,2.3737,2.3721,2.3739,2.3725,2.3725,2.3719,2.3719,2.3676,2.3724,2.3724,2.3724,2.3724,0,2.3616,2.3611,2.3636,2.3634,2.3629,2.3648,2.3642,2.3652,2.3661,2.366,2.3679,2.3678,2.3698,2.3699,2.371,2.3704,2.3706,2.3711,2.3713,2.3708,2.3707,2.3707,2.3708,2.3723,2.3723,2.3723,2.3723,0,2.3578,2.3595,2.3593,2.361,2.3614,2.3609,2.3624,2.3622,2.3633,2.3632,2.3633,2.365,2.3651,2.3667,2.3672,2.3679,2.3668,2.3675,2.3664,2.3666,2.3651,2.3651,2.3604,2.3598,2.3652,2.3651,2.3651,0,2.3558,2.3555,2.3572,2.3573,2.3579,2.3581,2.3584,2.3603,2.3604,2.3615,2.3611,2.3614,2.3618,2.3619,2.3631,2.3634,2.364,2.3623,2.364,2.3634,2.3636,2.3635,2.3634,2.3619,2.3618,2.3618,2.3617,0,2.3521,2.3528,2.3532,2.3538,2.3541,2.3546,2.3553,2.3553,2.3573,2.3574,2.3575,2.3578,2.3582,2.3584,2.359,2.3596,2.3609,2.3612,2.3609,2.3602,2.3594,2.3596,2.3652,2.3613,2.3613,2.3614,2.3614,2.3614,2.349,2.3487,2.3498,2.35,2.3507,2.3513,2.3511,2.3522,2.3524,2.3529,2.354,2.354,2.3548,2.3557,2.3562,2.356,2.3569,2.3565,2.3563,2.3561,2.3557,2.3597,2.3562,2.3562,2.3562,2.3562,2.3562,0,2.3451,2.3458,2.3461,2.3469,2.3471,2.3485,2.3492,2.3492,2.3492,2.3499,2.3501,2.3502,2.3504,2.3516,2.3518,2.3515,2.3521,2.3515,2.3514,2.3514,2.3551,2.3552,2.351,2.351,2.351,2.351,2.351,2.351,2.343,2.3426,2.3435,2.3433,2.3441,2.344,2.3443,2.3447,2.3453,2.3453,2.3455,2.3463,2.3471,2.3474,2.3476,2.3479,2.3478,2.3469,2.3474,2.3507,2.3512,2.3517,2.3518,2.347,2.3469,2.3438,2.3437,2.3437]}]]